Effective Sunday, March 17, 2024, the National Weather Service National Data Buoy Center will discontinue its Dial-A-Buoy Interactive Voice Response system. For more information, see Service Change Notice 24-06 (PDF).

Station 42026 - C22 - Loop Current Pressure Point Buoy, 70m Isobath Image indicating link to RSS feed of recent meteorological observations for station 42026


Conditions at 42026 as of
(5:35 am CST)
1135 GMT on 03/03/2024:
     

Click on the graph icon in the table below to see a time series plot of the last five days of that observation.

5-day plot - Wind Direction Wind Direction (WDIR):ESE ( 120 deg true )
5-day plot - Wind Speed Wind Speed (WSPD): 7.8 kts
5-day plot - Wind Gust Wind Gust (GST): 9.7 kts
5-day plot - Atmospheric Pressure Atmospheric Pressure (PRES):30.03 in
5-day plot - Air Temperature Air Temperature (ATMP): 73.6 °F
5-day plot - Water Temperature Water Temperature (WTMP): 72.9 °F
5-day plot - Dew Point Dew Point (DEWP): 73.0 °F
5-day plot - Wind Speed at 10 Meters Wind Speed at 10 meters (WSPD10M): 9.7 kts
5-day plot - Wind Speed at 20 Meters Wind Speed at 20 meters (WSPD20M): 9.7 kts
5-day plot -  Wind Speed, Wind Gust and Atmospheric Pressure Combined plot of Wind Speed, Gust, and Air Pressure
Previous observations
TIME
(CST)
5-day plot - Wind Direction
WDIR
 
5-day plot - Wind Speed
WSPD
kts
5-day plot - Wind Gust
GST
kts
5-day plot - Wave Height
WVHT
ft
5-day plot - Dominant Wave Period
DPD
sec
5-day plot - Average Wave Period
APD
sec
5-day plot - Mean Wave Direction
MWD
 
5-day plot - Atmospheric Pressure
PRES
in
5-day plot - Pressure Tendency
PTDY
in
5-day plot - Air Temperature
ATMP
°F
5-day plot - Water Temperature
WTMP
°F
5-day plot - Dew Point
DEWP
°F
5-day plot - Salinity
SAL
psu
5-day plot - Visibility
VIS
nmi
5-day plot - Tide (above MLLW)
TIDE
ft
2024-03-03 05:05 amESE 7.8 9.7----30.03- 73.6 72.9 73.0---
2024-03-03 04:35 amESE 9.7 11.7----30.02- 73.6 72.9 73.0---
2024-03-03 04:05 amESE 9.7 11.7----30.01- 73.6 72.9 73.0---
2024-03-03 03:35 am SE 11.7 13.6----30.01- 73.6 72.9 73.0---
2024-03-03 03:05 amESE 11.7 13.6----30.01- 73.4 72.9 73.0---
2024-03-03 02:35 amESE 13.6 15.5----30.01- 73.4 73.0 73.0---
2024-03-03 02:05 amESE 9.7 11.7----30.03- 73.4 73.0 73.0---
2024-03-03 01:35 amESE 9.7 11.7----30.03- 73.4 73.0 73.0---
2024-03-03 01:05 am SE 9.7 11.7----30.04- 73.4 73.0 72.9---
2024-03-03 12:35 am SE 9.7 11.7----30.06- 73.4 73.0 72.9---
2024-03-03 12:05 amESE 9.7 11.7----30.06- 73.4 73.2 72.9---
2024-03-02 11:35 pm SE 9.7 11.7----30.06- 73.4 73.2 72.9---
2024-03-02 11:05 pm SE 9.7 11.7----30.07- 73.2 73.2 72.9---
2024-03-02 10:35 pmESE 7.8 9.7----30.08- 73.4 73.2 73.0---
2024-03-02 10:05 pm E 5.8 7.8----30.09- 73.4 73.2 72.9---
2024-03-02 09:35 pm E 9.7 11.7----30.07- 73.6 73.4 73.0---
2024-03-02 09:05 pmESE 7.8 11.7----30.06- 73.6 73.4 73.0---
2024-03-02 08:35 pmESE 9.7 11.7----30.06- 73.8 73.2 73.0---
2024-03-02 08:05 pmESE 9.7 11.7----30.04- 73.9 73.2 72.9---
2024-03-02 07:35 pm SE 9.7 11.7----30.05- 73.9 73.2 72.9---
2024-03-02 07:05 pmSSE 7.8 9.7----30.06- 73.9 73.2 73.0---
2024-03-02 06:35 pmSSE 7.8 9.7----30.06- 73.9 73.2 73.2---
2024-03-02 06:05 pm SE 5.8 7.8----30.06- 73.8 73.2 73.4---
2024-03-02 05:35 pm SE 5.8 7.8----30.07- 73.8 73.2 73.4---
2024-03-02 05:05 pm SE 5.8 7.8----30.07- 73.8 73.4 73.4---
2024-03-02 04:35 pmESE 5.8 7.8----30.06- 73.8 73.6 73.8---
2024-03-02 04:05 pm E 7.8 7.8----30.06- 73.9 73.6 73.9---
2024-03-02 03:35 pm SE 3.9 5.8----30.06- 74.1 73.4 73.9---
2024-03-02 03:05 pm SE 3.9 5.8----30.07- 74.3 73.4 73.8---
2024-03-02 02:35 pm SE 3.9 5.8----30.07- 74.7 73.4 73.9---
2024-03-02 02:05 pm SE 3.9 3.9----30.07- 74.5 73.4 73.9---
2024-03-02 01:35 pmSSE 3.9 5.8----30.08- 74.5 73.4 73.6---
2024-03-02 01:05 pmSSE 5.8 7.8----30.09- 74.5 73.4 73.6---
2024-03-02 12:35 pmSSE 5.8 7.8----30.10- 74.5 73.4 73.6---
2024-03-02 12:05 pm SE 5.8 7.8----30.11- 74.5 73.4 73.6---
2024-03-02 11:35 am SE 7.8 9.7----30.11- 74.5 73.2 73.6---
2024-03-02 11:05 am SE 7.8 7.8----30.13- 74.3 73.2 73.4---
2024-03-02 10:35 am SE 7.8 9.7----30.13- 74.1 73.0 73.2---
2024-03-02 10:05 am SE 7.8 9.7----30.14- 74.1 73.0 73.2---
2024-03-02 09:35 am SE 7.8 9.7----30.14- 73.9 72.9 73.0---
2024-03-02 09:05 amESE 7.8 9.7----30.14- 73.9 72.9 73.0---
2024-03-02 08:35 amESE 9.7 11.7----30.13- 73.6 72.9 73.0---
2024-03-02 08:05 amESE 7.8 11.7----30.13- 73.4 72.9 72.9---
2024-03-02 07:35 amESE 9.7 9.7----30.13- 73.2 72.9 72.9---
2024-03-02 07:05 amESE 7.8 9.7----30.12- 73.2 72.9 72.9---

Disclaimer: Ocean current directions are reported to the nearest 10 degrees and speeds are measured to the nearest whole centimeter per second.

Ocean Current Data for 42026

Unit of Measure:   Time Zone:   
5:57 am CST 4:57 am CST 3:57 am CST
Depth
ft
Dir
°
Speed
kts
Dir
°
Speed
kts
Dir
°
Speed
kts
10 300 0.10260 0.16270 0.19
13 270 0.10260 0.17220 0.06
16 250 0.14260 0.25250 0.14
20 230 0.17250 0.23220 0.14
23 240 0.16240 0.25220 0.16
26 240 0.17230 0.23200 0.14
30 170 0.14220 0.14190 0.14
33 250 0.14250 0.29250 0.14
36 260 0.19270 0.23250 0.19
39 250 0.21260 0.23240 0.23
43 250 0.17250 0.19230 0.21
46 240 0.17240 0.16240 0.17
49 250 0.14240 0.17250 0.17
52 230 0.14230 0.23260 0.17
56 230 0.19230 0.23250 0.14
59 240 0.19240 0.23240 0.14
62 220 0.19240 0.25220 0.10
66 220 0.21230 0.27210 0.14
69 230 0.23230 0.25210 0.16
72 220 0.27220 0.25220 0.14
75 210 0.27220 0.23230 0.16
79 220 0.27230 0.25230 0.17
82 210 0.27230 0.25220 0.19
85 210 0.29230 0.29230 0.14
89 220 0.29220 0.31220 0.19
92 220 0.31220 0.31220 0.19
95 220 0.29230 0.29220 0.19
98 210 0.31220 0.27220 0.17
102 210 0.29220 0.29210 0.19
105 220 0.29220 0.29210 0.23
108 220 0.29230 0.29210 0.21
112 220 0.29220 0.25210 0.23
115 220 0.29220 0.27200 0.23
118 210 0.33220 0.27210 0.21
121 220 0.29230 0.27210 0.23
125 220 0.31240 0.27210 0.23
128 220 0.31240 0.27220 0.25
131 220 0.29220 0.23220 0.23
135 230 0.25240 0.21220 0.25
138 220 0.25230 0.21210 0.21
141 230 0.27230 0.21210 0.23
144 230 0.25230 0.17220 0.25
148 220 0.23230 0.16220 0.19
151 230 0.23220 0.16210 0.21
154 230 0.21230 0.16210 0.16
157 220 0.19210 0.16200 0.19
161 220 0.21200 0.16200 0.17
164 230 0.19200 0.17210 0.17
167 220 0.19200 0.19210 0.14
171 220 0.17210 0.19210 0.17
174 220 0.21220 0.23220 0.12
177 220 0.21210 0.25200 0.16
180 220 0.21210 0.29200 0.16
184 230 0.23210 0.31210 0.17
187 220 0.25220 0.27210 0.23
190 220 0.29220 0.29210 0.25
194 230 0.33220 0.29200 0.27

Previous (up to 48) reports of ocean current data for 42026

Ocean Current Stick Plots are available in metric units only:

All Instruments - 1-day plot - ocean current 1-day plot     3-day plot - ocean current 3-day plot     5-day plot - ocean current 5-day plot